Flag Weather past 2 weeks in Paradise, California, U.S.A.

Now
50 °F

Clear.


Feels Like: 49 °F
Forecast: 47 / 56 °F
Wind: 3 mph from Northeast

Location: Chico Municipal

Current Time: Nov 27, 2014 at 9:44:19 PM

Latest Report: Nov 27, 2014 at 9:15 PM


Visibility: 10 mi

Pressure: 30.07 "Hg

Humidity: 88%

Dew point: 46 °F

Location of ParadiseLocation

Historic Weather in Paradise — Graph

°F

Paradise temperature yesterday

Maximum temperature yesterday: 63 °F (at 1:47 PM)
Minimum temperature yesterday: 41 °F (at 12:55 AM)
Average temperature yesterday: 49 °F

Past Weeks' High & Low Weather Summary

 TemperatureHumidityPressure
High64 °F (Nov 15, 1:51 PM)100% (Nov 13, 1:55 AM)30.51 "Hg (Nov 13, 1:55 AM)
Low32 °F (Nov 17, 3:15 AM)25% (Nov 17, 2:50 PM)29.96 "Hg (Nov 13, 4:55 AM)
Average49 °F84%30.19 "Hg
* Reported Nov 12 8:15 PM — Nov 27 8:35 PM, Paradise, Weather by CustomWeather, © 2014

Note: Actual official high and low records may vary slightly from our data, if they occured in-between our weather recording intervals... More about our weather records

Advertising

Paradise weather history for previous 24 hours

 ConditionsComfort  
Time TempWeatherWind HumidityBarometerVisibility
8:35 PM
Nov 27
50 °FClear.5 mph88%30.08 "Hg10 mi
8:15 PM50 °FClear.No wind88%30.08 "Hg10 mi
7:55 PM52 °FClear.No wind82%30.08 "Hg10 mi
7:35 PM54 °FClear.No wind77%30.08 "Hg10 mi
6:55 PM54 °FClear.5 mph82%30.08 "Hg10 mi
6:35 PM54 °FClear.5 mph82%30.07 "Hg10 mi
6:15 PM55 °FClear.5 mph77%30.08 "Hg10 mi
5:55 PM55 °FClear.5 mph77%30.08 "Hg10 mi
4:48 PM59 °FPassing clouds.No wind63%30.08 "Hg80 mi
3:58 PM61 °FPartly sunny.6 mph68%30.09 "Hg25 mi
2:45 PM63 °FBroken clouds.No wind56%30.10 "Hg25 mi
1:50 PM61 °FBroken clouds.No wind63%30.12 "Hg40 mi
12:53 PM59 °FPartly sunny.6 mph68%30.14 "Hg40 mi
11:51 AM59 °FMostly cloudy.6 mph72%30.17 "Hg40 mi
10:57 AM55 °FMostly cloudy.No wind82%30.20 "Hg40 mi
9:57 AM50 °FPassing clouds.No wind94%30.21 "Hg40 mi
8:50 AM48 °FMostly cloudy.No wind94%30.21 "Hg25 mi
7:50 AM45 °FMostly cloudy.6 mph100%30.21 "Hg25 mi
6:55 AM46 °FMostly cloudy.No wind100%30.19 "Hg10 mi
5:35 AM48 °FClear.No wind87%30.19 "Hg10 mi
5:15 AM48 °FClear.6 mph87%30.20 "Hg10 mi
4:55 AM50 °FClear.5 mph88%30.20 "Hg10 mi
4:35 AM50 °FClear.6 mph88%30.20 "Hg10 mi
4:15 AM46 °FClear.3 mph100%30.20 "Hg10 mi
3:55 AM46 °FClear.6 mph100%30.21 "Hg10 mi
3:35 AM46 °FClear.5 mph93%30.21 "Hg10 mi
3:15 AM48 °FClear.No wind94%30.21 "Hg10 mi
2:55 AM48 °FClear.3 mph94%30.21 "Hg10 mi
2:35 AM46 °FClear.No wind100%30.22 "Hg10 mi
2:15 AM48 °FClear.No wind94%30.22 "Hg10 mi
1:55 AM48 °FClear.No wind94%30.22 "Hg10 mi
1:35 AM48 °FClear.No wind94%30.23 "Hg10 mi
1:15 AM50 °FClear.No wind88%30.23 "Hg10 mi
12:55 AM50 °FClear.No wind88%30.24 "Hg10 mi
12:35 AM50 °FClear.5 mph88%30.24 "Hg10 mi
12:15 AM50 °FClear.3 mph88%30.24 "Hg10 mi
11:55 PM
Nov 26
50 °FClear.No wind88%30.24 "Hg10 mi
11:35 PM48 °FClear.3 mph94%30.25 "Hg10 mi
11:15 PM48 °FClear.No wind94%30.24 "Hg10 mi
10:55 PM48 °FClear.No wind94%30.24 "Hg10 mi
10:35 PM52 °FClear.No wind82%30.23 "Hg10 mi
10:15 PM52 °FClear.6 mph82%30.23 "Hg10 mi
9:55 PM54 °FClear.6 mph77%30.24 "Hg10 mi
9:35 PM50 °FClear.3 mph94%30.24 "Hg10 mi
9:15 PM52 °FClear.3 mph88%30.24 "Hg10 mi
Weather by CustomWeather, © 2014

See weather overviewHow to use our weather pages